Temperature
19 19 19 19 19 18 18 18 18 18 18 18 18 18 18 18 17 17 18 18 18 18 18 17 17 17 17 17 17 17 17 17 16 16 16 16 16 16 16 16 16 16 15
19 19 18 18 18 18 18 18 18 18 18 17 17 17 17 17 17 17 17 17 17 17 17 17 17 17 17 17 17 17 17 16 16 16 16 16 15 15 15 15 15 15 15
19 18 18 18 18 18 18 18 18 17 17 17 17 17 17 17 17 17 17 17 17 17 17 17 17 16 16 16 16 16 16 16 16 15 15 15 15 15 15 15 15 15 15
18 18 18 18 18 18 17 17 17 17 17 17 17 17 17 17 17 17 17 17 16 16 16 16 16 16 16 16 16 16 16 16 15 15 15 15 15 15 14 14 14 14 14
18 18 18 17 17 17 17 17 17 17 17 16 16 16 16 16 16 16 16 16 16 16 16 16 16 16 16 16 15 15 15 15 15 15 15 14 14 14 14 14 14 14 14
18 18 17 17 17 17 17 17 17 16 16 16 16 16 16 16 16 16 16 16 16 15 15 15 15 15 15 15 15 15 15 14 14 14 14 14 14 14 14 13 13 13 13
18 17 17 17 17 16 16 16 16 16 16 16 16 16 16 16 16 15 15 15 15 15 15 15 15 15 15 15 15 14 14 14 14 14 14 13 13 13 13 13 13 13 13
17 17 17 17 16 16 16 16 16 15 15 15 15 15 15 15 15 15 15 15 15 15 15 15 14 14 14 14 14 14 14 14 14 14 13 13 13 13 13 13 12 12 12
17 17 17 16 16 16 16 16 15 15 15 15 15 15 15 15 15 15 15 15 15 14 14 14 14 14 14 14 14 14 14 14 14 13 13 13 13 13 13 12 12 12 12
17 17 16 16 16 16 16 16 15 15 15 15 15 15 14 14 14 14 14 14 14 14 14 14 14 14 14 14 13 13 13 13 13 13 13 13 13 12 12 12 12 12 12
16 16 16 16 16 15 15 15 15 15 15 15 14 14 14 14 14 14 14 14 14 14 14 14 14 14 13 13 13 13 13 13 13 12 12 12 12 12 12 12 12 11 11
16 16 16 16 15 15 15 15 14 14 14 14 14 14 14 14 14 14 13 13 13 13 13 13 13 13 13 13 13 13 13 12 12 12 12 12 12 12 12 12 11 11 11
16 15 15 15 15 15 14 14 14 14 14 13 13 13 13 13 13 13 13 13 13 13 13 13 13 13 13 13 13 12 12 12 12 12 11 11 11 11 11 11 11 11 11
15 15 15 15 14 14 14 14 14 13 13 13 13 13 13 13 13 13 13 13 13 13 13 13 13 13 12 12 12 12 12 12 11 11 11 11 11 11 11 11 11 11 10
15 15 14 14 14 14 14 14 13 13 13 13 13 13 13 13 13 13 13 13 13 13 13 13 12 12 12 12 12 12 12 11 11 11 11 11 10 10 10 10 10 10 10
14 14 14 14 14 13 13 13 13 13 13 13 13 13 13 13 13 13 13 13 13 12 12 12 12 12 12 12 11 11 11 11 11 11 11 10 10 10 10 10 10 10 10
14 13 13 13 13 13 13 13 13 13 13 13 13 13 12 13 13 13 12 12 12 12 12 12 12 12 11 11 11 11 11 11 11 11 10 10 10 10 10 9 9 9 9
13 13 13 13 13 13 13 13 13 13 13 13 13 12 12 12 12 12 12 12 12 12 12 12 12 11 11 11 11 11 11 11 11 10 10 10 10 9 9 9 9 9 9
12 12 12 12 12 12 12 12 12 12 12 12 12 12 12 12 12 12 12 12 11 11 11 11 11 11 11 11 11 11 11 10 10 10 10 10 9 9 9 9 9 9 8
12 12 12 12 12 12 12 12 12 12 12 12 12 12 12 12 11 11 11 11 11 11 11 11 11 11 11 11 11 11 10 10 10 10 10 9 9 9 9 8 8 8 8
12 12 11 11 11 11 11 11 11 11 11 11 11 11 11 11 11 11 11 11 11 11 11 11 11 11 11 10 10 10 10 10 10 9 9 9 9 9 8 8 8 8 8
11 11 11 11 11 11 11 11 11 11 11 11 11 11 11 11 11 11 11 11 11 11 11 10 10 10 10 10 10 10 10 10 9 9 9 9 9 8 8 8 8 8 8
11 11 11 11 11 11 11 11 11 11 11 11 10 10 10 10 10 10 10 10 10 10 10 10 10 10 10 10 10 9 9 9 9 9 9 8 8 8 8 8 8 7 7
10 10 10 10 10 10 10 10 10 10 10 10 10 10 10 10 10 10 10 10 10 10 10 10 10 10 9 9 9 9 9 9 9 9 9 8 8 8 8 8 7 7 7
10 10 10 10 10 10 10 10 10 10 10 10 10 10 10 10 10 10 10 10 9 9 9 9 9 9 9 9 9 9 9 9 9 9 8 8 8 8 8 7 7 7 7
10 10 10 10 10 10 10 10 10 10 10 9 9 9 9 9 9 9 9 9 9 9 9 9 9 9 9 9 9 9 8 8 8 8 8 8 8 8 8 7 7 7 7
Wind_Speed
3 3 3 3 3 3 3 2 2 1 1 1 2 2 2 1 1 1 1 1 1 0 1 1 1 1 1 1 0 0 1 2 2 3 2 2 1 2 2 2 2 2 3
3 3 3 2 2 2 2 2 2 2 1 1 1 2 2 1 1 1 0 0 1 0 0 1 1 1 1 1 1 0 0 1 2 2 2 2 2 2 2 1 2 2 3
4 3 2 2 2 3 3 2 2 2 1 1 1 2 2 1 0 0 1 1 1 1 0 0 1 0 1 1 0 0 0 1 0 1 2 2 2 1 2 2 2 2 3
3 3 3 3 3 3 2 2 3 3 2 1 1 1 1 1 1 1 1 1 1 0 0 1 1 1 1 1 0 0 0 1 0 0 2 2 2 2 1 1 3 3 3
4 3 3 3 3 3 2 2 2 3 3 2 1 1 1 1 0 0 1 1 1 0 1 1 1 0 1 0 0 1 1 1 0 0 1 2 2 2 2 1 2 3 3
4 3 2 2 2 3 2 2 2 2 2 2 1 1 1 1 0 1 1 0 1 1 1 1 0 1 1 1 1 0 1 2 2 2 2 2 3 3 2 2 2 2 3
4 3 3 3 2 2 3 2 2 2 2 2 2 2 1 2 1 1 1 1 1 1 2 1 1 1 1 1 2 2 2 2 3 3 4 4 4 4 3 2 2 2 4
4 3 3 3 3 2 2 2 2 2 2 2 2 1 1 2 1 1 1 1 1 1 2 2 2 1 1 0 1 2 3 3 4 3 4 5 5 4 4 3 4 3 4
3 3 3 3 3 3 2 2 2 2 2 2 2 2 2 3 2 1 1 1 0 2 2 2 2 3 3 1 0 2 3 5 5 5 5 6 6 5 3 1 1 1 3
3 3 2 3 3 3 3 3 2 2 2 2 2 2 3 3 2 1 2 1 1 2 3 3 3 3 4 2 2 2 4 5 4 5 4 4 4 4 4 4 4 2 2
3 2 2 2 3 3 3 2 2 1 1 1 1 2 2 3 2 2 1 2 2 2 2 3 3 4 3 3 3 4 6 4 3 3 3 3 3 2 2 3 4 4 3
3 2 2 2 2 2 2 2 2 2 1 1 1 2 2 2 2 3 3 3 3 3 3 3 3 4 3 3 3 4 5 2 1 1 2 3 3 3 3 3 4 5 5
2 2 2 2 1 2 2 2 1 1 1 1 1 3 3 3 3 3 3 3 3 3 3 4 4 4 4 3 4 4 2 0 1 1 3 3 3 3 3 2 2 2 3
2 2 2 2 1 1 1 2 2 2 2 2 2 3 4 3 3 3 2 2 2 2 2 3 3 3 2 3 3 2 1 2 2 3 3 3 3 2 2 2 2 2 2
1 1 1 1 2 1 1 2 3 3 4 4 4 4 4 5 6 6 4 3 3 3 1 1 1 1 2 2 2 2 2 2 2 2 2 2 2 2 2 2 1 1 2
1 1 1 1 1 1 1 2 3 3 4 6 7 6 5 7 7 6 6 6 4 3 2 1 2 2 3 3 3 3 2 3 3 3 2 2 2 2 2 2 1 1 2
2 2 1 1 1 1 2 2 2 4 4 4 6 7 7 7 7 6 6 5 3 3 2 3 3 4 4 4 4 3 3 3 3 3 3 3 2 2 1 2 2 2 3
1 1 1 2 2 2 3 3 3 3 3 3 4 6 6 6 6 5 4 1 1 2 3 4 4 4 4 4 4 4 4 3 2 2 3 3 2 2 2 2 2 3 3
1 1 2 2 2 2 3 3 3 3 3 3 3 4 5 4 4 3 3 3 3 4 4 4 4 4 4 4 4 4 3 3 3 3 3 3 2 2 2 3 3 4 3
2 2 2 2 2 2 2 2 3 3 3 3 3 3 2 1 1 2 3 3 3 4 4 4 4 4 4 4 3 3 2 3 3 3 3 3 3 2 3 3 3 3 4
2 3 4 3 3 3 3 3 3 3 3 4 5 5 4 3 4 4 3 3 4 4 4 4 4 4 3 3 3 3 3 3 3 3 3 3 3 3 3 3 3 3 3
2 3 2 3 3 2 2 3 3 3 4 4 4 4 5 3 3 3 3 4 4 3 3 3 3 3 3 3 3 3 3 4 3 3 3 3 3 3 3 2 3 3 2
2 2 2 2 2 2 3 3 3 3 3 3 3 2 3 3 3 3 3 3 3 3 3 2 2 3 3 3 3 3 4 4 4 4 4 3 3 3 3 3 3 3 2
2 2 2 2 2 2 2 3 3 3 3 3 3 3 2 3 3 3 3 3 2 2 2 2 3 2 2 2 2 3 3 4 4 4 4 4 3 3 2 3 3 3 3
1 1 2 2 2 3 3 3 3 3 2 2 2 3 2 2 2 3 3 2 2 2 2 2 2 2 2 2 2 2 3 2 2 2 3 3 3 2 2 2 2 2 2
2 1 1 2 2 2 2 3 3 2 2 2 3 2 2 2 2 2 2 2 1 2 2 2 1 2 1 1 2 1 1 1 1 2 2 2 2 2 1 1 1 1 1
Wind_Direction
148 149 161 165 168 158 158 185 182 172 130 121 118 105 85 64 81 112 150 148 143 294 347 63 330 337 7 340 350 145 174 162 221 282 280 293 303 291 304 279 259 244 244
145 137 165 170 160 157 164 184 161 139 143 158 136 120 106 80 55 95 145 114 136 154 338 49 342 6 12 346 31 26 259 180 177 254 294 315 296 278 274 284 287 280 262
133 129 150 175 168 169 173 167 147 135 129 137 125 132 130 119 113 135 144 132 129 153 154 140 281 48 348 314 358 15 312 19 124 202 272 290 296 312 335 324 317 310 297
138 143 170 186 187 187 176 162 154 146 152 189 187 157 160 152 164 249 173 140 153 177 194 197 246 201 218 258 323 314 77 50 22 242 278 293 287 298 355 323 318 306 295
150 152 182 186 184 179 165 170 169 163 169 185 187 171 175 166 196 159 172 142 149 190 297 273 265 141 114 180 105 191 156 162 189 242 278 297 294 313 300 278 291 298 292
152 159 167 159 175 186 186 176 166 170 165 173 179 180 186 256 261 147 166 189 202 200 241 282 296 52 356 340 325 262 164 183 197 204 244 258 267 267 275 288 288 318 301
164 169 169 170 169 190 190 169 184 193 179 178 190 169 199 262 248 201 181 176 218 221 212 212 254 330 352 336 327 339 314 280 224 204 220 239 245 246 243 273 267 258 259
171 179 181 176 172 170 168 183 202 204 197 203 207 196 219 254 238 210 156 137 228 248 221 206 203 255 282 273 299 322 301 289 266 235 218 237 248 240 225 233 242 261 279
170 189 191 181 180 179 181 196 197 190 208 214 199 186 219 262 271 211 162 157 286 287 265 237 218 233 270 275 242 291 303 299 292 281 263 260 263 262 236 193 248 274 290
192 191 191 187 185 191 201 204 199 191 209 206 200 204 217 243 276 231 159 164 237 283 286 269 256 264 271 259 227 237 272 281 294 305 301 295 281 276 253 208 201 213 252
189 174 171 172 181 191 199 203 198 190 178 186 204 237 237 247 265 249 195 197 217 242 260 270 275 282 277 262 239 231 249 263 275 278 290 302 303 291 268 233 214 207 220
175 168 172 178 184 182 181 198 182 161 159 188 229 273 276 271 257 251 235 231 230 221 245 255 263 275 271 270 260 263 271 284 292 299 305 294 292 287 279 263 245 237 232
168 178 184 184 185 167 170 181 176 168 176 217 232 257 274 272 260 252 246 251 252 230 244 266 281 287 286 277 283 296 300 257 262 276 275 275 273 276 285 291 298 290 281
174 202 201 181 185 169 174 176 183 197 205 214 232 252 262 267 259 252 252 253 263 257 265 286 297 298 298 298 310 307 267 241 236 246 264 277 292 300 295 292 293 299 304
163 201 214 194 180 180 201 218 213 217 209 210 226 229 238 259 258 238 222 232 227 232 233 310 332 333 325 308 295 281 261 262 258 267 268 289 302 297 293 299 297 303 279
155 224 232 215 206 205 218 306 306 268 252 232 224 227 243 247 259 250 240 234 223 195 155 223 249 247 248 256 258 263 258 251 246 245 252 256 263 270 287 301 296 263 273
193 211 226 231 225 221 217 219 281 315 315 290 260 248 248 253 258 249 245 247 234 170 182 232 238 242 245 242 240 241 247 251 242 231 240 249 261 267 272 280 281 278 276
225 222 224 235 243 241 236 232 228 237 274 293 292 272 267 266 264 251 228 171 244 207 221 234 240 242 248 245 239 239 247 254 244 237 237 239 242 255 258 271 266 263 263
234 239 241 240 243 249 250 247 243 242 242 257 276 293 284 280 278 266 187 187 212 229 237 244 244 241 241 241 241 239 240 244 246 237 236 237 238 241 253 260 266 269 262
271 258 252 250 251 256 262 261 255 245 244 245 246 254 263 263 268 261 235 233 226 228 228 236 244 239 233 235 241 245 247 251 253 247 245 243 241 239 246 254 257 266 265
281 277 278 276 257 251 253 251 249 244 245 247 250 247 216 216 226 227 226 234 237 236 229 231 237 239 233 234 238 237 236 246 247 246 249 249 246 250 252 250 251 255 263
268 268 261 256 257 255 255 247 245 243 243 251 263 265 234 225 232 234 232 239 245 246 242 236 240 240 235 235 233 232 238 248 248 242 244 247 246 249 255 252 257 259 257
275 280 283 273 264 263 267 261 249 245 249 254 253 252 232 234 235 234 235 238 243 241 234 227 240 260 264 250 238 226 234 238 236 228 230 237 239 244 250 250 245 246 246
280 270 264 270 268 264 263 263 258 251 244 245 242 234 230 233 238 241 242 240 235 234 235 229 230 244 272 286 269 238 231 240 236 224 217 223 234 242 245 251 249 241 236
302 291 273 264 268 268 271 271 266 261 255 251 250 247 232 223 235 249 253 252 247 245 242 232 240 235 248 268 269 269 277 276 273 248 222 218 222 231 239 251 256 254 238
310 300 285 276 278 277 273 276 275 265 251 252 254 248 233 216 229 252 258 252 248 254 256 247 251 225 245 261 287 306 303 308 304 277 225 206 198 215 230 239 246 226 211
Height
1521 1522 1523 1523 1523 1523 1523 1523 1524 1523 1523 1523 1523 1522 1522 1522 1521 1521 1520 1520 1520 1519 1519 1519 1519 1519 1518 1518 1517 1517 1517 1516 1514 1513 1513 1513 1512 1510 1509 1508 1507 1506 1505
1519 1520 1521 1521 1521 1521 1521 1522 1522 1521 1521 1521 1521 1520 1520 1520 1519 1519 1519 1518 1518 1517 1517 1517 1517 1517 1516 1516 1515 1514 1514 1514 1513 1511 1510 1510 1509 1508 1507 1505 1505 1504 1503
1518 1518 1518 1519 1519 1519 1519 1520 1520 1520 1520 1519 1519 1518 1518 1518 1518 1517 1517 1516 1516 1516 1515 1515 1514 1514 1514 1513 1513 1512 1511 1511 1510 1509 1508 1507 1506 1505 1504 1503 1502 1501 1500
1516 1516 1517 1516 1516 1517 1517 1517 1517 1517 1517 1517 1517 1516 1516 1516 1516 1515 1515 1515 1514 1514 1513 1513 1512 1512 1511 1511 1510 1509 1509 1508 1507 1506 1505 1504 1503 1502 1501 1500 1499 1498 1497
1515 1515 1514 1515 1515 1515 1515 1514 1514 1514 1514 1514 1514 1514 1513 1513 1513 1513 1513 1513 1512 1511 1511 1511 1510 1510 1509 1508 1507 1507 1506 1505 1504 1503 1502 1501 1500 1499 1498 1497 1496 1495 1494
1513 1512 1513 1513 1513 1513 1512 1512 1512 1512 1512 1512 1511 1511 1511 1511 1511 1511 1511 1510 1509 1509 1508 1508 1508 1507 1506 1506 1505 1504 1504 1503 1502 1501 1500 1498 1497 1496 1495 1494 1493 1492 1491
1510 1510 1511 1511 1511 1510 1510 1510 1509 1509 1509 1508 1508 1508 1508 1508 1508 1508 1508 1507 1507 1506 1506 1505 1505 1504 1504 1503 1502 1502 1501 1500 1500 1499 1497 1496 1494 1493 1492 1491 1490 1489 1488
1508 1508 1508 1508 1508 1509 1508 1508 1507 1506 1506 1506 1505 1505 1505 1505 1505 1505 1505 1504 1504 1503 1503 1502 1502 1501 1501 1500 1499 1498 1498 1497 1496 1495 1494 1493 1492 1491 1490 1489 1488 1486 1485
1505 1506 1506 1506 1506 1506 1506 1505 1505 1504 1503 1503 1502 1502 1502 1503 1503 1502 1502 1501 1501 1500 1500 1500 1499 1499 1498 1497 1496 1495 1494 1493 1493 1492 1491 1490 1489 1488 1487 1485 1484 1483 1481
1502 1503 1503 1503 1503 1503 1503 1502 1502 1501 1501 1500 1499 1499 1500 1500 1500 1499 1499 1498 1497 1497 1497 1497 1496 1496 1495 1494 1493 1492 1490 1490 1489 1488 1487 1486 1485 1484 1483 1482 1481 1479 1478
1499 1499 1499 1499 1500 1500 1500 1499 1499 1498 1498 1497 1497 1496 1496 1496 1496 1496 1496 1495 1495 1494 1494 1493 1493 1492 1492 1491 1490 1489 1488 1487 1486 1485 1484 1483 1482 1480 1479 1479 1478 1477 1475
1496 1496 1496 1495 1496 1496 1496 1496 1496 1496 1495 1494 1494 1493 1493 1493 1493 1492 1492 1492 1492 1491 1490 1490 1489 1489 1488 1488 1487 1486 1485 1484 1483 1482 1481 1479 1478 1477 1476 1475 1474 1473 1472
1493 1493 1492 1492 1492 1492 1493 1493 1493 1493 1492 1492 1491 1491 1490 1489 1489 1489 1489 1489 1488 1488 1487 1486 1486 1485 1485 1484 1483 1483 1482 1481 1479 1478 1477 1476 1475 1474 1473 1471 1470 1469 1468
1490 1490 1490 1489 1489 1490 1490 1490 1490 1490 1489 1489 1489 1488 1488 1487 1487 1487 1486 1486 1485 1484 1484 1483 1483 1482 1481 1480 1480 1479 1478 1477 1476 1475 1474 1473 1472 1470 1469 1468 1466 1465 1464
1487 1487 1487 1487 1487 1487 1487 1487 1487 1487 1487 1486 1485 1485 1484 1483 1483 1483 1482 1482 1481 1481 1480 1479 1478 1478 1477 1476 1476 1475 1474 1474 1473 1472 1471 1469 1468 1466 1465 1464 1463 1462 1461
1485 1485 1485 1484 1484 1484 1484 1483 1483 1484 1483 1482 1482 1481 1480 1480 1480 1479 1478 1477 1477 1477 1476 1475 1474 1474 1473 1472 1472 1471 1470 1470 1469 1468 1467 1466 1464 1463 1462 1461 1460 1459 1457
1482 1482 1482 1482 1482 1481 1481 1480 1480 1480 1480 1479 1478 1477 1477 1476 1476 1475 1475 1474 1473 1473 1472 1471 1470 1470 1469 1469 1468 1468 1467 1466 1466 1465 1464 1462 1461 1459 1458 1457 1456 1455 1454
1480 1479 1479 1479 1478 1478 1478 1477 1477 1476 1475 1474 1474 1473 1473 1472 1472 1471 1470 1470 1469 1468 1468 1467 1467 1466 1466 1465 1465 1464 1463 1463 1462 1461 1460 1458 1457 1456 1454 1454 1453 1451 1450
1477 1476 1476 1475 1475 1475 1474 1474 1474 1473 1472 1471 1470 1469 1469 1468 1467 1467 1466 1465 1464 1463 1463 1463 1463 1462 1462 1461 1460 1460 1459 1458 1458 1457 1456 1454 1453 1452 1451 1450 1449 1448 1447
1474 1474 1473 1472 1472 1471 1471 1470 1470 1469 1468 1467 1466 1465 1465 1464 1463 1462 1462 1461 1460 1460 1459 1459 1459 1458 1457 1457 1456 1455 1455 1454 1453 1453 1451 1450 1449 1448 1447 1446 1445 1444 1443
1471 1470 1470 1469 1469 1468 1468 1467 1466 1465 1464 1463 1462 1461 1461 1460 1459 1458 1458 1457 1457 1456 1455 1455 1455 1454 1453 1453 1452 1451 1450 1450 1449 1448 1447 1446 1445 1444 1443 1442 1441 1440 1440
1469 1468 1467 1466 1466 1465 1464 1463 1463 1462 1461 1460 1459 1458 1457 1456 1455 1455 1454 1454 1453 1453 1452 1451 1451 1450 1449 1448 1447 1446 1446 1445 1444 1444 1443 1442 1442 1440 1440 1438 1438 1437 1436
1466 1465 1464 1463 1463 1462 1461 1460 1459 1458 1457 1456 1455 1454 1453 1452 1452 1451 1450 1450 1449 1449 1448 1448 1447 1446 1445 1444 1443 1443 1442 1441 1440 1439 1438 1438 1437 1437 1436 1435 1434 1433 1433
1463 1462 1461 1460 1459 1458 1457 1456 1455 1454 1453 1452 1451 1451 1450 1449 1448 1448 1447 1446 1446 1445 1444 1443 1443 1442 1441 1440 1439 1439 1438 1437 1436 1435 1435 1434 1433 1433 1432 1432 1431 1430 1429
1461 1460 1459 1457 1456 1455 1454 1452 1451 1450 1449 1449 1448 1447 1446 1445 1445 1444 1444 1443 1442 1441 1440 1439 1439 1438 1437 1436 1436 1435 1434 1433 1432 1431 1431 1431 1430 1429 1429 1429 1428 1427 1427
1458 1457 1456 1455 1453 1452 1451 1449 1448 1447 1446 1445 1445 1444 1443 1442 1441 1441 1440 1439 1438 1437 1436 1435 1435 1434 1433 1432 1431 1430 1430 1429 1429 1428 1428 1427 1427 1426 1426 1426 1425 1425 1424